Regional Weather Roundup
Issued by NWS Cleveland, OH

Home | Current Version | Previous Version | Graphics & Text | Print | Product List | Glossary On
Versions: 1 2 3 4 5 6 7 8 9 10 11 12 13 14 15 16 17 18 19 20 21 22 23 24 25 26 27 28 29 30 31 32 33 34 35 36 37 38 39 40 41 42 43 44 45 46 47 48 49 50
000
ASUS41 KCLE 290910
RWRCLE
OHIO REGIONAL WEATHER ROUNDUP
NATIONAL WEATHER SERVICE CLEVELAND, OH
500 AM EDT MON AUG 29 2016

NOTE: "FAIR" INDICATES FEW OR NO CLOUDS BELOW 12,000 FEET WITH NO
SIGNIFICANT WEATHER AND/OR OBSTRUCTIONS TO VISIBILITY.

OHZ001>008-015>018-024>027-034-035-043-044-291000-
   NORTHWEST OHIO

CITY           SKY/WX    TMP DP  RH WIND       PRES   REMARKS
DEFIANCE       CLEAR     67  64  90 CALM      30.22R
FINDLAY        FOG       70  67  90 CALM      30.21R VSB 1/2
TOLEDO EXPRESS CLEAR     69  69 100 CALM      30.22R
TOLEDO EXEC    PTCLDY    74  72  93 NE3       30.22S
LIMA           CLEAR     68  67  96 N5        30.22R
$$

OHZ009>014-019>023-028>033-038-089-291000-
   NORTHEAST OHIO

CITY           SKY/WX    TMP DP  RH WIND       PRES   REMARKS
CLE-HOPKINS    MOCLDY    72  67  84 CALM      30.23S
CLE-LAKEFRONT  MOCLDY    77  71  82 E6        30.20S
CUY CO. ARPT   NOT AVBL
LORAIN-ELYRIA  PTCLDY    67  66  97 CALM      30.22S
ASHTABULA      CLOUDY    71  71 100 CALM      30.24R
AKRON-CANTON   PTCLDY    68  64  87 NW3       30.22S
WOOSTER        PTCLDY    65  65 100 CALM      30.22F FOG
MANSFIELD      PTCLDY    68  67  96 N6        30.23S
YOUNGSTOWN     PTCLDY    67  66  97 N6        30.21F FOG
$$

OHZ042-051>053-060>062-070>072-077>081-291000-
  SOUTHWEST OHIO

CITY           SKY/WX    TMP DP  RH WIND       PRES   REMARKS
CINC-COVINGTON PTCLDY    70  69  97 N5        30.19S FOG
CINC-LUNKEN    CLEAR     67  67 100 CALM      30.19S FOG
HAMILTON       CLEAR     66  65  96 NW3       30.21R FOG
DAYTON         PTCLDY    68  66  93 CALM      30.22R
WRIGHT-PAT AFB CLEAR     68  67  98 NW2       30.20R
DAYTON GENERAL CLEAR     68  65  90 CALM      30.20R
WILMINGTON     CLOUDY    68  66  93 CALM      30.19S
$$

OHZ036-037-039>041-045>050-054>059-063>069-073>076-082>088-291000-
  CENTRAL AND SOUTHEAST OHIO

CITY           SKY/WX    TMP DP  RH WIND       PRES   REMARKS
COLUMBUS       CLOUDY    71  68  90 N6        30.18S
OSU AIRPORT    CLOUDY    73  70  90 N8        30.19S
BOLTON FIELD   CLOUDY    74  70  88 N6        30.20S
RICKENBACK AFB CLOUDY    73  69  89 N5        30.18S
NEWARK         CLOUDY    70  68  93 NE5       30.19S
MARION         CLEAR     69  67  93 CALM      30.22S
LANCASTER      CLOUDY    72  69  90 CALM      30.19R
ZANESVILLE     CLOUDY    68  65  90 CALM      30.19S
NEW PHILLY     CLEAR     67  63  87 CALM      30.21S
$$




USA.gov is the U.S. government's official web portal to all federal, state and local government web resources and services.